Terug naar catalogus

COSMOS 1818 COOLANT

LostLEO
NORAD 50791·DEBRIS·🇷🇺 Russia

Gelanceerd Feb 1, 1987 vanaf Baikonur Cosmodrome

Loading…

Volgende Passages (komende 24 uur)

TLE

VerouderdSource: Space-Track

Epoch: Oct 7, 2024, 07:48 UTC

1 50791U 87011BG  24281.32504437 -.00000072  00000-0  10000-4 0  9999
2 50791  65.0075 136.6876 0014658 255.7045 104.2421 14.36894898746748

Volg COSMOS 1818 COOLANT in realtime met AllMySat

Download on the App Store